• In Österreich
  • Länderverzeichnis
  • Für 7 Tage
  • Wassertemperatur
  • Satellitenkarten
  • Wetterkarte
  • News
  • Widgets
  • user-avatar
    Anmelden

    Stündliche Wetter Chyrs'ke

    Heute, 14 August, Dienstag

    Zeit Temperatur Niederschläge Wind Luftdruck Luftfeuchtigkeit
    00:00 +23°C° 0 mm 2 m/S 752 mmHg 63%
    01:00 +23°C° 0 mm 2 m/S 752 mmHg 65%
    02:00 +23°C° 0 mm 2 m/S 752 mmHg 65%
    03:00 +23°C° 0 mm 2 m/S 752 mmHg 67%
    04:00 +21°C° 0 mm 2 m/S 752 mmHg 69%
    05:00 +21°C° 0 mm 2 m/S 752 mmHg 70%
    06:00 +23°C° 0 mm 2 m/S 752 mmHg 68%
    07:00 +25°C° 0 mm 2 m/S 752 mmHg 65%
    08:00 +27°C° 0 mm 2 m/S 752 mmHg 60%
    09:00 +28°C° 0 mm 2 m/S 752 mmHg 56%
    10:00 +30°C° 0 mm 1 m/S 752 mmHg 51%
    11:00 +31°C° 0 mm 1 m/S 752 mmHg 46%
    12:00 +32°C° 0 mm 2 m/S 752 mmHg 43%
    13:00 +32°C° 0 mm 2 m/S 752 mmHg 40%
    14:00 +34°C° 0 mm 2 m/S 752 mmHg 37%
    15:00 +32°C° 0 mm 2 m/S 752 mmHg 40%
    16:00 +32°C° 0 mm 2 m/S 752 mmHg 42%
    17:00 +32°C° 0 mm 2 m/S 752 mmHg 45%
    18:00 +30°C° 0 mm 2 m/S 752 mmHg 47%
    19:00 +28°C° 0 mm 1 m/S 752 mmHg 50%
    20:00 +26°C° 0 mm 1 m/S 752 mmHg 53%
    21:00 +25°C° 0 mm 1 m/S 752 mmHg 53%
    22:00 +25°C° 0 mm 1 m/S 752 mmHg 53%
    23:00 +24°C° 0 mm 1 m/S 752 mmHg 53%

    Morgen, 15 August, Mittwoch

    Zeit Temperatur Niederschläge Wind Luftdruck Luftfeuchtigkeit
    00:00 +24°C° 0 mm 2 m/S 752 mmHg 54%
    01:00 +23°C° 0 mm 2 m/S 752 mmHg 54%
    02:00 +23°C° 0 mm 2 m/S 752 mmHg 54%
    03:00 +21°C° 0 mm 2 m/S 752 mmHg 54%
    04:00 +21°C° 0 mm 2 m/S 752 mmHg 54%
    05:00 +20°C° 0 mm 2 m/S 752 mmHg 55%
    06:00 +22°C° 0 mm 3 m/S 752 mmHg 54%
    07:00 +24°C° 0 mm 3 m/S 752 mmHg 53%
    08:00 +26°C° 0 mm 3 m/S 752 mmHg 52%
    09:00 +28°C° 0 mm 3 m/S 752 mmHg 48%
    10:00 +30°C° 0 mm 4 m/S 752 mmHg 43%
    11:00 +32°C° 0 mm 4 m/S 752 mmHg 39%
    12:00 +33°C° 0 mm 4 m/S 752 mmHg 37%
    13:00 +34°C° 0 mm 4 m/S 752 mmHg 35%
    14:00 +34°C° 0 mm 5 m/S 751 mmHg 33%
    15:00 +34°C° 0 mm 4 m/S 751 mmHg 36%
    16:00 +33°C° 0 mm 4 m/S 751 mmHg 39%
    17:00 +33°C° 0 mm 3 m/S 751 mmHg 42%
    18:00 +30°C° 0 mm 3 m/S 752 mmHg 44%
    19:00 +28°C° 0 mm 2 m/S 752 mmHg 46%
    20:00 +26°C° 0 mm 2 m/S 752 mmHg 48%
    21:00 +25°C° 0 mm 2 m/S 752 mmHg 51%
    22:00 +24°C° 0 mm 2 m/S 752 mmHg 53%
    23:00 +24°C° 0 mm 2 m/S 752 mmHg 55%

    übermorgen, 16 August, Donnerstag

    Zeit Temperatur Niederschläge Wind Luftdruck Luftfeuchtigkeit
    00:00 +23°C° 0 mm 1 m/S 752 mmHg 58%
    01:00 +22°C° 0 mm 1 m/S 752 mmHg 61%
    02:00 +22°C° 0 mm 1 m/S 752 mmHg 65%
    03:00 +21°C° 0 mm 1 m/S 752 mmHg 68%
    04:00 +21°C° 0 mm 1 m/S 752 mmHg 72%
    05:00 +20°C° 0 mm 2 m/S 752 mmHg 76%
    06:00 +21°C° 0 mm 2 m/S 753 mmHg 74%
    07:00 +23°C° 0 mm 2 m/S 753 mmHg 72%
    08:00 +25°C° 0 mm 2 m/S 753 mmHg 71%
    09:00 +26°C° 0 mm 2 m/S 753 mmHg 65%
    10:00 +28°C° 0 mm 2 m/S 753 mmHg 60%
    11:00 +29°C° 0 mm 2 m/S 753 mmHg 54%
    12:00 +30°C° 0 mm 2 m/S 753 mmHg 51%
    13:00 +31°C° 0 mm 2 m/S 753 mmHg 49%
    14:00 +31°C° 0 mm 2 m/S 753 mmHg 46%
    15:00 +30°C° 0,4 mm 2 m/S 753 mmHg 50%
    16:00 +30°C° 0,4 mm 3 m/S 753 mmHg 55%
    17:00 +29°C° 0,4 mm 3 m/S 752 mmHg 59%
    18:00 +27°C° 0,3 mm 4 m/S 753 mmHg 67%
    19:00 +25°C° 0,3 mm 4 m/S 753 mmHg 75%
    20:00 +22°C° 0,3 mm 4 m/S 753 mmHg 83%
    21:00 +22°C° 0,4 mm 4 m/S 753 mmHg 85%
    22:00 +21°C° 0,4 mm 3 m/S 753 mmHg 86%
    23:00 +20°C° 0,4 mm 3 m/S 753 mmHg 88%

    17 August, Freitag

    Zeit Temperatur Niederschläge Wind Luftdruck Luftfeuchtigkeit
    00:00 +20°C° 0,2 mm 3 m/S 753 mmHg 88%
    01:00 +20°C° 0,2 mm 3 m/S 753 mmHg 89%
    02:00 +20°C° 0,2 mm 2 m/S 753 mmHg 89%
    03:00 +19°C° 0,1 mm 2 m/S 753 mmHg 90%
    04:00 +19°C° 0,1 mm 2 m/S 753 mmHg 91%
    05:00 +19°C° 0,1 mm 2 m/S 753 mmHg 91%
    06:00 +20°C° 0,4 mm 3 m/S 754 mmHg 88%
    07:00 +21°C° 0,4 mm 3 m/S 754 mmHg 84%
    08:00 +24°C° 0,4 mm 3 m/S 754 mmHg 80%
    09:00 +25°C° 0 mm 3 m/S 754 mmHg 74%
    10:00 +27°C° 0 mm 3 m/S 754 mmHg 68%
    11:00 +28°C° 0 mm 3 m/S 754 mmHg 61%
    12:00 +29°C° 0 mm 3 m/S 753 mmHg 57%
    13:00 +30°C° 0 mm 3 m/S 753 mmHg 53%
    14:00 +31°C° 0 mm 2 m/S 753 mmHg 49%
    15:00 +31°C° 0 mm 2 m/S 753 mmHg 51%
    16:00 +30°C° 0 mm 2 m/S 753 mmHg 53%
    17:00 +30°C° 0 mm 2 m/S 753 mmHg 54%
    18:00 +28°C° 0 mm 3 m/S 753 mmHg 59%
    19:00 +26°C° 0 mm 3 m/S 753 mmHg 64%
    20:00 +25°C° 0 mm 3 m/S 753 mmHg 69%
    21:00 +24°C° 0,2 mm 3 m/S 753 mmHg 72%
    22:00 +23°C° 0,2 mm 2 m/S 753 mmHg 75%
    23:00 +23°C° 0,2 mm 2 m/S 753 mmHg 77%

    18 August, Samstag

    Zeit Temperatur Niederschläge Wind Luftdruck Luftfeuchtigkeit
    00:00 +21°C° 0,6 mm 2 m/S 753 mmHg 80%
    01:00 +21°C° 0,6 mm 2 m/S 753 mmHg 82%
    02:00 +20°C° 0,6 mm 2 m/S 753 mmHg 85%
    03:00 +20°C° 0,1 mm 2 m/S 753 mmHg 86%
    04:00 +20°C° 0,1 mm 2 m/S 754 mmHg 86%
    05:00 +20°C° 0,1 mm 2 m/S 754 mmHg 87%
    06:00 +21°C° 0 mm 2 m/S 754 mmHg 82%
    07:00 +24°C° 0 mm 2 m/S 754 mmHg 76%
    08:00 +25°C° 0 mm 2 m/S 754 mmHg 71%
    09:00 +27°C° 0 mm 2 m/S 754 mmHg 65%
    10:00 +28°C° 0 mm 2 m/S 754 mmHg 58%
    11:00 +30°C° 0 mm 2 m/S 754 mmHg 52%
    12:00 +31°C° 0 mm 1 m/S 754 mmHg 49%
    13:00 +32°C° 0 mm 1 m/S 753 mmHg 45%
    14:00 +30°C° 0 mm 0 m/S 753 mmHg 42%
    15:00 +32°C° 0 mm 1 m/S 753 mmHg 45%
    16:00 +31°C° 0 mm 1 m/S 753 mmHg 48%
    17:00 +31°C° 0 mm 2 m/S 753 mmHg 51%
    18:00 +29°C° 0,1 mm 2 m/S 753 mmHg 57%
    19:00 +27°C° 0,1 mm 2 m/S 753 mmHg 62%
    20:00 +25°C° 0,1 mm 3 m/S 754 mmHg 67%
    21:00 +25°C° 0,6 mm 3 m/S 754 mmHg 72%
    22:00 +24°C° 0,6 mm 3 m/S 754 mmHg 76%
    23:00 +22°C° 0,6 mm 3 m/S 754 mmHg 81%

    19 August, Sonntag

    Zeit Temperatur Niederschläge Wind Luftdruck Luftfeuchtigkeit
    00:00 +23°C° 0,8 mm 2 m/S 754 mmHg 82%
    01:00 +21°C° 0,8 mm 2 m/S 754 mmHg 84%
    02:00 +22°C° 0,8 mm 1 m/S 754 mmHg 86%
    03:00 +22°C° 0,6 mm 1 m/S 754 mmHg 86%
    04:00 +21°C° 0,6 mm 2 m/S 754 mmHg 87%
    05:00 +21°C° 0,6 mm 2 m/S 754 mmHg 88%
    06:00 +21°C° 0 mm 2 m/S 754 mmHg 85%
    07:00 +23°C° 0 mm 2 m/S 754 mmHg 83%
    08:00 +24°C° 0 mm 2 m/S 754 mmHg 80%
    09:00 +25°C° 0,5 mm 2 m/S 754 mmHg 74%
    10:00 +27°C° 0,5 mm 2 m/S 754 mmHg 67%
    11:00 +28°C° 0,5 mm 2 m/S 754 mmHg 61%
    12:00 +28°C° 0,4 mm 2 m/S 754 mmHg 59%
    13:00 +29°C° 0,4 mm 2 m/S 754 mmHg 56%
    14:00 +29°C° 0,4 mm 2 m/S 754 mmHg 53%
    15:00 +29°C° 0 mm 2 m/S 754 mmHg 55%
    16:00 +29°C° 0 mm 2 m/S 754 mmHg 57%
    17:00 +29°C° 0 mm 2 m/S 754 mmHg 59%
    18:00 +27°C° 0 mm 1 m/S 754 mmHg 62%
    19:00 +26°C° 0 mm 1 m/S 754 mmHg 66%
    20:00 +24°C° 0 mm 1 m/S 754 mmHg 70%
    21:00 +23°C° 0 mm 1 m/S 754 mmHg 71%
    22:00 +23°C° 0 mm 1 m/S 754 mmHg 73%
    23:00 +22°C° 0 mm 1 m/S 754 mmHg 74%
    Mehr zeigen